Tracking 30743 objects as of 20-Jun-2025
HD Live streaming from Space Station
objects crossing your sky now

SL-14 DEB

Track SL-14 DEB now!
10-day predictions


NORAD ID: 35400
Int'l Code: 1991-068AW
Perigee: 1,178.7 km
Apogee: 1,471.5 km
Inclination: 82.9 °
Period: 112.0 minutes
Semi major axis: 7696 km
RCS: 0.0033 m2 (small)
Launch date: September 28, 1991
Source: Commonwealth of Independent States (former USSR) (CIS)
Launch site: PLESETSK MISSILE AND SPACE COMPLEX (PKMTR)

Note: This is SATELLITE DEBRIS
Your satellite tracking list
Your tracking list is empty




NASA's NSSDC Master Catalog

Two Line Element Set (TLE):
1 35400U 91068AW  25151.57507770  .00000096  00000-0  31829-3 0  9999
2 35400  82.9211 263.7531 0190199 214.5872 159.2874 12.85865922258685
Source of the keplerian elements: AFSPC